• In Deutschland
  • Länderverzeichnis
  • Für 7 Tage
  • Wassertemperatur
  • Satellitenkarten
  • Wetterkarte
  • Widgets
  • user-avatar
    Anmelden

    Stündliche Wetter Igls

    Heute, 25 Mai, Donnerstag

    Zeit Temperatur Niederschläge Wind Luftdruck Luftfeuchtigkeit
    00:00 +11°C° 1,4 mm 1 m/S 687 mmHg 97%
    01:00 +10°C° 0 mm 2 m/S 687 mmHg 97%
    02:00 +9°C° 0,2 mm 2 m/S 686 mmHg 97%
    03:00 +9°C° 0,2 mm 1 m/S 686 mmHg 97%
    04:00 +8°C° 0,2 mm 1 m/S 686 mmHg 97%
    05:00 +10°C° 0 mm 1 m/S 686 mmHg 95%
    06:00 +11°C° 0 mm 1 m/S 687 mmHg 93%
    07:00 +12°C° 0 mm 1 m/S 687 mmHg 92%
    08:00 +13°C° 0 mm 1 m/S 687 mmHg 84%
    09:00 +15°C° 0 mm 1 m/S 687 mmHg 77%
    10:00 +16°C° 0 mm 1 m/S 688 mmHg 69%
    11:00 +17°C° 0 mm 2 m/S 688 mmHg 66%
    12:00 +17°C° 0 mm 2 m/S 688 mmHg 63%
    13:00 +18°C° 0 mm 2 m/S 688 mmHg 60%
    14:00 +18°C° 0,1 mm 2 m/S 687 mmHg 63%
    15:00 +18°C° 0,1 mm 2 m/S 687 mmHg 65%
    16:00 +17°C° 0,1 mm 2 m/S 687 mmHg 67%
    17:00 +16°C° 0,1 mm 2 m/S 687 mmHg 75%
    18:00 +15°C° 0,1 mm 2 m/S 687 mmHg 82%
    19:00 +14°C° 0,1 mm 1 m/S 687 mmHg 89%
    20:00 +13°C° 0 mm 1 m/S 687 mmHg 92%
    21:00 +12°C° 0 mm 1 m/S 687 mmHg 94%
    22:00 +11°C° 0 mm 1 m/S 687 mmHg 97%
    23:00 +10°C° 0 mm 1 m/S 687 mmHg 97%

    Morgen, 26 Mai, Freitag

    Zeit Temperatur Niederschläge Wind Luftdruck Luftfeuchtigkeit
    00:00 +9°C° 0 mm 1 m/S 686 mmHg 97%
    01:00 +9°C° 0 mm 1 m/S 686 mmHg 97%
    02:00 +8°C° 0 mm 1 m/S 686 mmHg 96%
    03:00 +7°C° 0 mm 1 m/S 686 mmHg 96%
    04:00 +7°C° 0 mm 1 m/S 685 mmHg 96%
    05:00 +9°C° 0 mm 1 m/S 686 mmHg 89%
    06:00 +12°C° 0 mm 1 m/S 686 mmHg 82%
    07:00 +14°C° 0 mm 1 m/S 687 mmHg 75%
    08:00 +16°C° 0 mm 1 m/S 687 mmHg 67%
    09:00 +19°C° 0 mm 1 m/S 687 mmHg 59%
    10:00 +20°C° 0 mm 2 m/S 688 mmHg 51%
    11:00 +20°C° 0 mm 2 m/S 688 mmHg 50%
    12:00 +21°C° 0 mm 2 m/S 688 mmHg 49%
    13:00 +23°C° 0 mm 2 m/S 688 mmHg 47%
    14:00 +23°C° 0 mm 2 m/S 687 mmHg 50%
    15:00 +23°C° 0 mm 2 m/S 687 mmHg 52%
    16:00 +21°C° 0 mm 2 m/S 687 mmHg 54%
    17:00 +20°C° 0 mm 2 m/S 687 mmHg 64%
    18:00 +18°C° 0 mm 2 m/S 686 mmHg 73%
    19:00 +18°C° 0 mm 1 m/S 686 mmHg 83%
    20:00 +14°C° 0 mm 1 m/S 686 mmHg 88%
    21:00 +12°C° 0 mm 1 m/S 686 mmHg 92%
    22:00 +9°C° 0 mm 1 m/S 686 mmHg 97%
    23:00 +9°C° 0 mm 1 m/S 686 mmHg 95%

    übermorgen, 27 Mai, Samstag

    Zeit Temperatur Niederschläge Wind Luftdruck Luftfeuchtigkeit
    00:00 +9°C° 0 mm 1 m/S 686 mmHg 94%
    01:00 +8°C° 0 mm 1 m/S 686 mmHg 93%
    02:00 +8°C° 0 mm 1 m/S 686 mmHg 90%
    03:00 +8°C° 0 mm 1 m/S 686 mmHg 88%
    04:00 +8°C° 0 mm 1 m/S 686 mmHg 86%
    05:00 +11°C° 0 mm 1 m/S 686 mmHg 79%
    06:00 +14°C° 0 mm 1 m/S 687 mmHg 72%
    07:00 +16°C° 0 mm 1 m/S 688 mmHg 64%
    08:00 +19°C° 0 mm 1 m/S 688 mmHg 56%
    09:00 +22°C° 0 mm 1 m/S 689 mmHg 47%
    10:00 +24°C° 0 mm 1 m/S 689 mmHg 39%
    11:00 +24°C° 0 mm 1 m/S 689 mmHg 39%
    12:00 +25°C° 0 mm 2 m/S 689 mmHg 39%
    13:00 +26°C° 0 mm 2 m/S 689 mmHg 39%
    14:00 +25°C° 0 mm 2 m/S 689 mmHg 43%
    15:00 +25°C° 0 mm 2 m/S 689 mmHg 46%
    16:00 +25°C° 0 mm 2 m/S 689 mmHg 50%
    17:00 +23°C° 0,1 mm 2 m/S 688 mmHg 61%
    18:00 +21°C° 0,1 mm 1 m/S 688 mmHg 73%
    19:00 +19°C° 0,1 mm 1 m/S 688 mmHg 85%
    20:00 +16°C° 0 mm 1 m/S 688 mmHg 88%
    21:00 +13°C° 0 mm 1 m/S 688 mmHg 92%
    22:00 +11°C° 0 mm 1 m/S 687 mmHg 96%
    23:00 +11°C° 0 mm 1 m/S 688 mmHg 96%

    28 Mai, Sonntag

    Zeit Temperatur Niederschläge Wind Luftdruck Luftfeuchtigkeit
    00:00 +12°C° 0 mm 1 m/S 688 mmHg 95%
    01:00 +13°C° 0 mm 1 m/S 688 mmHg 95%
    02:00 +13°C° 0 mm 1 m/S 688 mmHg 95%
    03:00 +13°C° 0 mm 1 m/S 688 mmHg 95%
    04:00 +13°C° 0 mm 2 m/S 688 mmHg 94%
    05:00 +14°C° 0 mm 1 m/S 689 mmHg 90%
    06:00 +16°C° 0 mm 1 m/S 689 mmHg 85%
    07:00 +19°C° 0 mm 1 m/S 690 mmHg 81%
    08:00 +21°C° 0 mm 1 m/S 690 mmHg 68%
    09:00 +24°C° 0 mm 1 m/S 690 mmHg 56%
    10:00 +24°C° 0 mm 0 m/S 691 mmHg 43%
    11:00 +27°C° 0 mm 1 m/S 691 mmHg 41%
    12:00 +27°C° 0 mm 1 m/S 690 mmHg 39%
    13:00 +28°C° 0 mm 1 m/S 690 mmHg 37%
    14:00 +28°C° 0 mm 1 m/S 690 mmHg 40%
    15:00 +27°C° 0 mm 1 m/S 690 mmHg 43%
    16:00 +27°C° 0 mm 1 m/S 690 mmHg 46%
    17:00 +25°C° 0 mm 1 m/S 689 mmHg 58%
    18:00 +23°C° 0 mm 1 m/S 689 mmHg 70%
    19:00 +21°C° 0 mm 1 m/S 689 mmHg 81%
    20:00 +19°C° 0 mm 1 m/S 688 mmHg 86%
    21:00 +16°C° 0 mm 1 m/S 688 mmHg 91%
    22:00 +13°C° 0 mm 1 m/S 688 mmHg 95%
    23:00 +14°C° 0 mm 1 m/S 688 mmHg 95%

    29 Mai, Montag

    Zeit Temperatur Niederschläge Wind Luftdruck Luftfeuchtigkeit
    00:00 +14°C° 0 mm 1 m/S 688 mmHg 95%
    01:00 +14°C° 0 mm 1 m/S 688 mmHg 94%
    02:00 +14°C° 0 mm 1 m/S 688 mmHg 94%
    03:00 +14°C° 0 mm 1 m/S 687 mmHg 94%
    04:00 +14°C° 0 mm 1 m/S 687 mmHg 94%
    05:00 +15°C° 0 mm 1 m/S 687 mmHg 89%
    06:00 +18°C° 0 mm 1 m/S 688 mmHg 84%
    07:00 +20°C° 0 mm 1 m/S 688 mmHg 79%
    08:00 +22°C° 0 mm 1 m/S 688 mmHg 68%
    09:00 +25°C° 0 mm 1 m/S 689 mmHg 58%
    10:00 +25°C° 0 mm 0 m/S 689 mmHg 47%
    11:00 +28°C° 0 mm 1 m/S 689 mmHg 45%
    12:00 +28°C° 0 mm 1 m/S 688 mmHg 43%
    13:00 +29°C° 0 mm 1 m/S 688 mmHg 41%
    14:00 +28°C° 0,1 mm 1 m/S 688 mmHg 45%
    15:00 +28°C° 0,1 mm 1 m/S 687 mmHg 49%
    16:00 +27°C° 0,1 mm 1 m/S 687 mmHg 54%
    17:00 +25°C° 0,4 mm 1 m/S 686 mmHg 65%
    18:00 +24°C° 0,4 mm 1 m/S 686 mmHg 76%
    19:00 +22°C° 0,4 mm 1 m/S 686 mmHg 87%
    20:00 +20°C° 0,2 mm 1 m/S 686 mmHg 90%
    21:00 +18°C° 0,2 mm 1 m/S 685 mmHg 93%
    22:00 +15°C° 0,2 mm 1 m/S 685 mmHg 96%
    23:00 +15°C° 0,2 mm 1 m/S 685 mmHg 96%

    30 Mai, Dienstag

    Zeit Temperatur Niederschläge Wind Luftdruck Luftfeuchtigkeit
    00:00 +15°C° 0,2 mm 1 m/S 685 mmHg 96%
    01:00 +15°C° 0,2 mm 1 m/S 685 mmHg 96%
    02:00 +14°C° 0,2 mm 1 m/S 685 mmHg 95%
    03:00 +14°C° 0,2 mm 1 m/S 684 mmHg 95%
    04:00 +14°C° 0,2 mm 1 m/S 684 mmHg 95%
    05:00 +16°C° 0,1 mm 1 m/S 685 mmHg 91%
    06:00 +19°C° 0,1 mm 1 m/S 685 mmHg 87%
    07:00 +19°C° 0,1 mm 0 m/S 686 mmHg 83%
    08:00 +23°C° 0,1 mm 1 m/S 686 mmHg 74%
    09:00 +25°C° 0,1 mm 1 m/S 686 mmHg 65%
    10:00 +27°C° 0,1 mm 1 m/S 687 mmHg 56%
    11:00 +27°C° 0,9 mm 1 m/S 687 mmHg 59%
    12:00 +27°C° 0,9 mm 1 m/S 686 mmHg 62%
    13:00 +26°C° 0,9 mm 1 m/S 686 mmHg 66%
    14:00 +26°C° 1,7 mm 1 m/S 686 mmHg 70%
    15:00 +25°C° 1,7 mm 1 m/S 686 mmHg 74%
    16:00 +24°C° 1,7 mm 1 m/S 686 mmHg 78%
    17:00 +23°C° 1,4 mm 1 m/S 686 mmHg 83%
    18:00 +22°C° 1,4 mm 1 m/S 686 mmHg 88%
    19:00 +19°C° 1,4 mm 0 m/S 686 mmHg 93%
    20:00 +17°C° 0,7 mm 0 m/S 686 mmHg 94%
    21:00 +16°C° 0,7 mm 0 m/S 686 mmHg 96%
    22:00 +14°C° 0,7 mm 0 m/S 686 mmHg 97%
    23:00 +14°C° 0,3 mm 0 m/S 686 mmHg 97%
    Mehr zeigen